weather.gov     
National Weather Service

Regional Weather Roundup
NWS Homepage
This page is being discontinued on March 12, 2014.
The same data is available at this site. Please update your bookmarks.
Thank you, and we apologize for the inconvenience.
Please send an email to SR-SRH.Webmaster@noaa.gov with any concerns.


Current Version
Previous Version:    01  02  03  04  05  06  07  08  09  10  11  12  13  14  15  16  17  18  19  20  21  22  23  24  25  26  27  28  29  30  
   31  32  33  34  35  36  37  38  39  40  41  42  43  44  45  46  47  48  49  50  51  52  53  
[Printable]
710
ASUS46 KSGX 020410
RWRSGX

SAN DIEGO HOURLY WEATHER ROUNDUP
NATIONAL WEATHER SERVICE SAN DIEGO CA
900 PM PDT FRI AUG 01 2014

NOTE: "FAIR" INDICATES FEW OR NO CLOUDS BELOW 12,000 FEET WITH NO
SIGNIFICANT WEATHER AND/OR OBSTRUCTIONS TO VISIBILITY.

CAZ042-043-060-061-PZZ750-775-020500-

GREATER SAN DIEGO AREA

CITY           SKY/WX    TMP DP  RH WIND       PRES   REMARKS
LINDBERGH FLD  MOCLDY    72  64  76 NW3       29.90R
POINT LOMA       N/A     68  64  85 W3          N/A
NATIONAL CITY    N/A     72  66  81 S2        29.90R
CHULA VISTA      N/A     71  66  85 CALM      29.83R
IMPERIAL BEACH PTCLDY    70  64  81 SW5       29.90R
BROWN FIELD    PTCLDY    68  63  84 W6        29.90R
MIRAMAR MCAS   PTCLDY    70  62  76 W3        29.90R
MONTGOMERY FLD PTCLDY    72  63  73 CALM      29.90R

$$

NORTH SAN DIEGO COUNTY

CITY           SKY/WX    TMP DP  RH WIND       PRES   REMARKS
CAMP PENDLETON PTCLDY    69  62  78 SW3       29.88R
OCEANSIDE AP   CLEAR     70  63  78 CALM      29.88R
VISTA            N/A     70  64  81 CALM      29.86R
CARLSBAD       CLEAR     70  63  78 CALM      29.89R
DEL MAR          N/A     69  65  86 CALM      29.91R
FALLBROOK        N/A     71  67  89 CALM      29.87R
ESCONDIDO        N/A     74  65  72 W2        29.89R
SAN MARCOS       N/A     71  64  79 CALM      29.86R
POWAY            N/A     72  64  76 CALM      29.89R
R. PENASQUITOS   N/A     69  64  82 CALM      29.89R

$$

EAST SAN DIEGO COUNTY

CITY           SKY/WX    TMP DP  RH WIND       PRES   REMARKS
RAMONA         CLEAR     73  60  63 W5        29.92R
SANTEE LAKES     N/A     73  65  75 W3        29.89R
GILLESPIE FLD  FAIR      73  63  68 SW3       29.91R
LA MESA          N/A     71  66  83 CALM      29.83R
JAMUL            N/A     71  64  77 CALM      29.87R
DESCANSO N       N/A     76  49  39 W3        29.74R
MT. LAGUNA OBS   N/A     71  45  39 W2        29.79R
CAMPO            N/A     77  61  57 CALM      29.96R

$$

ORANGE COUNTY AND THE LOS ANGELES BASIN

CITY           SKY/WX    TMP DP  RH WIND       PRES   REMARKS
JOHN WAYNE AP  PTCLDY    73  64  73 SW5       29.88R
LAGUNA BEACH     N/A     70  67  89 CALM      29.84R
LAKE FOREST FR   N/A     73  61  67 CALM      29.77S
SANTA ANA        N/A     73  66  79 CALM      29.83R
HUNTINGTON BCH   N/A     68  65  90 W5        29.91R
FULLERTON      CLEAR     73  64  73 S3        29.87R
LONG BEACH     CLEAR     72  64  76 NW5       29.88R
L.A. AP        MOCLDY    67  63  87 W8        29.89R
L.A. DOWNTOWN  CLEAR     70  63  78 SW3       29.88R

$$

THE INLAND EMPIRE

CITY           SKY/WX    TMP DP  RH WIND       PRES   REMARKS
CORONA         CLEAR     75  64  68 W8        29.88R
CHINO          CLEAR     74  64  71 NW6       29.89R
ONTARIO        CLEAR     79  63  57 W6        29.89R
RIVERSIDE AP   CLEAR     81  62  52 W3        29.89R
RIV CYN CREST    N/A     83  68  61 CALM      29.87R
MORENO VALLEY    N/A     85  61  44 CALM        N/A
MARCH ARB      CLEAR     82  60  47 W3        29.92R
HORSETHIEF CYN   N/A     82  59  45 CALM      29.87R
PERRIS           N/A     85  59  41 CALM      29.87R
MENIFEE          N/A     82  60  47 S3        29.95R
HEMET EAST       N/A     84  54  35 CALM      29.85R
FRENCH VALLEY  FAIR      79  57  47 CALM      29.92R
TEMECULA         N/A     77  63  61 N3        29.87R

$$

SAN BERNARDINO AND RIVERSIDE COUNTY MOUNTAINS

CITY           SKY/WX    TMP DP  RH WIND       PRES   REMARKS
BIG BEAR AP    CLEAR     64  50  59 SW5       30.31R
BIG BEAR SHEA    N/A     66  48  52 CALM      29.84F
ANGELUS OAKS     N/A     69  48  46 MISG      29.74R
PINE COVE        N/A     69  49  48 N3        29.84R

$$

SOUTHERN DESERT INCLUDING THE COACHELLA VALLEY

CITY           SKY/WX    TMP DP  RH WIND       PRES   REMARKS
PALM SPRINGS   PTCLDY    99  69  37 SE5       29.78R HX 105
THOUSAND PALMS   N/A     96  70  41 SE2       29.72R HX 102
THERMAL        CLEAR     92  72  51 CALM      29.71R HX  99
BLYTHE           N/A    N/A N/A N/A MISG      29.76R
IMPERIAL AP    MOCLDY   100  63  29 SE12      29.73R HX 102
EL CENTRO NAS  MOCLDY   100  62  28 SE14      29.73R HX 101
YUMA AZ        CLOUDY    99  63  30 S7        29.77R HX 101
MEXICALI       MOCLDY    95  64  36 SE8       29.76  HX  97

$$

UPPER DESERT

CITY           SKY/WX    TMP DP  RH WIND       PRES   REMARKS
VICTORVILLE AP CLEAR     90  43  19 CALM      29.98R
HESPERIA         N/A     86  49  27 W8        29.89R
APPLE VALLEY     N/A     87  46  24 S2        30.04R
GRAY BUTTE AP  NOT AVBL
PALMDALE       CLEAR     87  47  24 W13       29.95R
LANCASTER      CLEAR     87  51  28 SW18      29.93R
EDWARDS AFB    CLEAR     89  50  26 SW15      29.91R
DAGGETT        CLEAR     93  55  27 S17       29.85R
29 PALMS N     PTCLDY    94  54  25 SW14      29.94R
NEEDLES        CLEAR    102  56  21 S6        29.80R HX 101

$$

REGIONAL REPORTS

CITY           SKY/WX    TMP DP  RH WIND       PRES   REMARKS
SANTA BARBARA  CLEAR     65  59  81 CALM      29.87R
SANDBERG       CLEAR     81  45  28 NW7       30.13R
MT. WILSON       N/A     72  36  26 MISG        N/A
LAS VEGAS NV   PTCLDY    99  51  19 S13       29.83R HX  96
PHOENIX AZ     MOCLDY    95  57  27 SE6       29.87R
TIJUANA        PTCLDY    70  61  73 W6        29.92R
ENSENADA NW      N/A     70  32  24 E6        29.87R

$$

OFFSHORE ISLANDS

CITY           SKY/WX    TMP DP  RH WIND       PRES   REMARKS
CATALINA ARPT  CLEAR     62  59  90 SE3       29.93R
SAN NICOLAS IS CLOUDY   N/A N/A N/A W21G28    29.89R HAZE

$$

MARINE AND OFFSHORE BUOY REPORTS

STATION/POSITION SKY/WX   TEMP    WIND        PRES    SWELL
                          AIR SEA DIR/SP/G            HT/PER/DIR
                          (F)     (DEG/KT/KT) (MB)    (FT/S/D)
TANNER BANKS               65 67  320/ 14/ 17 1012.7R   3/310/ 7
S CLEMENTE BASIN           67 70  290/  8/ 10 1012.3R   3/290/ 5
SAN NICOLAS IS.               65                N/A     2/220/15
SO. S. ROSA ISLA           64 66  310/ 16/ 19 1011.7S   2/ 7
W. S. BARBARA CH           62 62  310/ 19/ 21 1011.1R   2/310/ 7
M. S. BARBARA CH           63 66  260/ 14/ 17 1011.6R
S. MONICA BASIN            65 70  300/  4/  8 1011.2F   2/210/11
S PEDRO CHANNEL               71                N/A     2/170/11
DANA POINT                    72                N/A     2/200/15
CMP PENDLETON NS              72                N/A     2/220/14
OCEANSIDE OFFSHR              72                N/A     2/210/15
TORREY PINES OTR              73                N/A     2/210/15
LA JOLLA 1                                    1012.0
MISSION BAY BUOY              73                N/A     2/220/15
SAN DIEGO BAY                                 1012.3S
POINT LOMA SOUTH              73                N/A     2/210/15

$$





U.S. Dept. of Commerce
NOAA National Weather Service
1325 East West Highway
Silver Spring, MD 20910
E-mail: w-nws.webmaster@noaa.gov
Page last modified: May 16, 2007
NATIONAL WEATHER SERVICE: for Safety, for Work, for Fun - FOR LIFE